Regional Weather Roundup
Issued by NWS Grand Forks, ND

Home | Current Version | Previous Version | Graphics & Text | Print | Product List | Glossary On
Versions: 1 2 3 4 5 6 7 8 9 10 11 12 13 14 15 16 17 18 19 20 21 22 23 24 25 26 27 28 29 30 31 32 33 34 35 36 37 38 39 40 41 42 43 44 45 46 47 48 49 50
000
ASUS43 KFGF 200410
RWRFGF
PRAIRIE TO PINES  WEATHER ROUNDUP
NATIONAL WEATHER SERVICE EASTERN NORTH DAKOTA/GRAND FORKS ND
1000 PM CST MON FEB 19 2018

 **SATELLITE DATA USED TO AUGMENT SKY COVER AT AUTOMATED STATIONS**
 *****  WEATHER ACROSS EASTERN NORTH DAKOTA  *****

CITY           SKY/WX    TMP DP  RH WIND       PRES   REMARKS
GRAND FORKS    CLOUDY     5  -4  66 N18       30.18F WCI -15
GRAND FRKS AFB MOCLDY     4  -5  66 NE18      30.18F WCI -16
GRAND FRKS NWS   N/A      4  -2  78 N15       30.15F WCI -15
DEVILS LAKE    LGT SNOW   2  -2  83 N12       30.17F FOG     WCI -15
FARGO          LGT SNOW   6   1  80 N20G29    30.10F WCI -14
WAHPETON ARPT  CLOUDY     9   3  78 N16G25    30.06R WCI  -9
$$

 ***** WEATHER ACROSS CENTRAL AND WESTERN NORTH DAKOTA  *****

CITY           SKY/WX    TMP DP  RH WIND       PRES   REMARKS
BISMARCK       LGT SNOW   4  -2  76 N7        30.16S WCI  -8
MINOT          LGT SNOW   5   1  83 NW5       30.14F FOG     WCI  -4
JAMESTOWN      LGT SNOW   3  -1  83 N20       30.11S FOG     WCI -18
MINOT AFB      FLURRIES   4  -1  77 CALM      30.15S
GARRISON         N/A      3  -1  83 N7        30.12F WCI  -9
WILLISTON      CLOUDY     3  -1  83 CALM      30.15S FOG
DICKINSON      LGT SNOW   2  -4  76 CALM      30.06S
HETTINGER      CLOUDY     0  -5  79 N7        30.05R HAZE    WCI -13
$$

 *****  OTHER AIRPORT OBSERVATIONS IN OUR AREA  *****

CITY           SKY/WX    TMP DP  RH WIND       PRES   REMARKS
WALHALLA       FAIR       5  -8  56 N8        30.23F WCI  -8
GRAFTON AIRPOR FAIR       5  -6  61 N13       30.24F WCI -12
VALLEY CITY AR LGT SNOW   1   0  92 N21       30.12R WCI -20
CANDO          CLOUDY     3  -4  72 N5        30.19S HAZE    WCI  -6
CAVALIER APRT    N/A      5  -6  61 N9        30.22F WCI  -9
GWINNER        FOG        3   0  85 N22G29    30.08R VSB 1   WCI -19
SHEYENNE NWR     N/A      4  -1  79 N15       29.95S WCI -14
ROLLA          MOCLDY     1  -8  66 CALM      30.15S
 ***** THE ABOVE OBSERVATIONS ARE NON NWS ARE NOT QUALITY
       CONTROLLED AND MAY MIS-REPORT RAIN FOR SNOW...
$$

  *****  WEATHER ACROSS NORTHERN MINNESOTA  *****

CITY           SKY/WX    TMP DP  RH WIND       PRES   REMARKS
FLAG ISLAND    CLOUDY     7  -8  51 NE7       30.19F WCI  -5
WARROAD        FAIR       7  -4  61 NE6       30.20R WCI  -3
ROSEAU         NOT AVBL
HALLOCK        MOCLDY     5  -8  56 N10       30.21F WCI -10
THF RVR FALLS  CLOUDY   N/A N/A N/A N14       30.14F
BAUDETTE       CLOUDY     7  -4  60 N9        30.16S WCI  -7
WASKISH        CLOUDY     9   0  66 NE6       30.12S WCI  -1
CROOKSTON      FLURRIES   7   0  72 N14       30.16F WCI -10
STEPHEN NDAWN    N/A      3  -4  72 N12         N/A  WCI -13
GREENBUSH NDAW   N/A      3  -6  66 VRB8        N/A  WCI -10
$$
  *****  WEATHER ACROSS CENTRAL AND WEST MINNESOTA  *****

CITY           SKY/WX    TMP DP  RH WIND       PRES   REMARKS
FOSSTON        LGT SNOW   3  -2  78 N15       30.08F WCI -15
BEMIDJI        LGT SNOW   8   2  79 N8        30.08R WCI  -5
PARK RAPIDS    LGT SNOW   9   3  77 NE13G20   30.00F WCI  -7
ELBOW LAKE     FLURRIES  11   8  87 E10       29.98F WCI  -2
WADENA         FLURRIES   9   7  92 NE12      29.97F WCI  -6
DETROIT LAKES  FLURRIES  10   7  85 NE12      30.01F WCI  -4
MOORHEAD       LGT SNOW   5   0  78 N22G28    30.08F WCI -16
FERGUS FALLS   CLOUDY    10   7  85 NE10G18   29.99F WCI  -3
MORRIS MN      LGT SNOW  12   9  85 NE16      29.94F WCI  -4
STAPLES        FLURRIES  10   7  85 NE8       29.98F WCI  -1
$$
  *****  WEATHER ELSEWHERE ACROSS MINNESOTA  *****

CITY           SKY/WX    TMP DP  RH WIND       PRES   REMARKS
DULUTH         LGT SNOW  13   7  77 NE16G26   29.97F WCI  -3
INTRNTL FALLS  CLOUDY     8  -2  63 NE10      30.14F WCI  -6
ELY            LGT SNOW   5   1  85 NE7       30.06F WCI  -7
CLOQUET        FLURRIES  12   7  79 NE12G21   29.97F WCI  -2
WHEATON        LGT SNOW   9   5  85 N13G18    30.02F WCI  -7
BRAINERD       CLOUDY    13   3  64 NE14      30.00S WCI  -2
HIBBING        FLURRIES   7   2  80 NE9       30.04F WCI  -7
ALEXANDRIA     CLOUDY    12   7  80 NE15      29.94F WCI  -4
SAINT CLOUD    CLOUDY    14  10  84 N8        29.95R WCI   3
MINNEAPOLIS    FRZ DRZL  20  19  96 NE14      29.90R FOG     WCI   7
$$

  *****  WEATHER ACROSS SOUTH DAKOTA  *****

CITY           SKY/WX    TMP DP  RH WIND       PRES   REMARKS
SIOUX FALLS    FLURRIES  15  11  83 NE10      29.90R WCI   2
BROOKINGS      FLURRIES  10   7  87 N12       29.92R WCI  -5
WATERTOWN      CLOUDY     6   3  87 N15       29.94R FOG     WCI -12
HURON          LGT SNOW   7   5  91 N16       30.03R VSB 3/4 WCI -11
SISSETON         N/A      6   3  87 N20       30.02F WCI -14
ABERDEEN       SNOW       4   0  83 N17       30.09R VSB 1/2 WCI -16
MITCHELL       LGT SNOW  11   7  84 N15       30.00R FOG     WCI  -5
PIERRE         FOG        5   2  87 NE16      30.05R VSB 1   WCI -14
MOBRIDGE       LGT SNOW   5  -1  76 N13       30.05R WCI -12
RAPID CITY     LGT SNOW  -1  -6  79 N17       29.96S WCI -22
$$

  *****  SOME WEATHER IN NEARBY STATES *****

CITY           SKY/WX    TMP DP  RH WIND       PRES   REMARKS
GLASGOW MT     CLOUDY    -4  -9  79 W3        30.12R
GREAT FALLS MT FAIR     -11 -15  82 SW7       29.99S WCI -26
CHEYENNE WY    LGT SNOW  -3  -7  82 N10       29.66R FOG     WCI -20
SCOTTSBLUFF NE HAZE       1  -4  79 N7        29.88R VSB 1   WCI -12
OMAHA NE       CLOUDY    23  20  88 N12       29.85F WCI  12
DES MOINES IA  FLURRIES  28  26  92 NW10      29.83S WCI  19
DAVENPORT IA   RAIN      43  41  93 W8        29.81R FOG
CHICAGO IL     LGT RAIN  59  56  89 S20G26    29.80S
EAU CLAIRE WI  CLOUDY    22  20  92 NE15G22   29.86F WCI   9
LA CROSSE WI   CLOUDY    33  31  92 N6        29.81R FOG
$$

  *****  SOME NATIONAL WEATHER *****

CITY           SKY/WX    TMP DP  RH WIND       PRES   REMARKS
LA GUARDIA NY  DRZL/FOG  46  45  96 CALM      30.33S VSB 1/4
RALEIGH NC     FOG       50  50 100 CALM      30.44R VSB 1/4
ATLANTA GA     MOCLDY    61  61 100 E12       30.33R
NEW ORLEANS LA FAIR      72  70  93 SE14      30.13S
OKLAHOMA CITY  CLOUDY    48  40  73 N7        29.73S
ALBUQUERQUE NM MOCLDY    52  27  38 SW21G30   29.61R
SALT LAKE CITY MOCLDY    24  14  65 CALM      29.74R
LOS ANGELES CA FAIR      51  16  24 N8        29.98R
BOISE ID       CLOUDY    19   5  54 NW17      29.94R WCI   4
SEATTLE WA     FAIR      32  12  43 CALM      30.20R
$$

*** WEATHER ACROSS MANITOBA...SASKATCHEWAN AND ONTARIO ***
                ***ONTARIO***

CITY           SKY/WX    TMP DP  RH WIND       PRES   REMARKS
GERALDTON      CLOUDY    -8 -15  71 NE13      30.29S WCI -28
THUNDER BAY    LGT SNOW   5   1  85 N5        30.21F WCI  -4
SIOUX LOOKOUT  CLOUDY     0 -13  55 NE6       30.22F WCI -12
TORONTO        LGT RAIN  39  37  93 N7        30.01R
BIG TROUT LK   CLEAR    -29 -38  62 CALM      30.35F
PICKLE LAKE    NOT AVBL
DRYDEN         CLOUDY     1  -9  60 NE7       30.19R WCI -11
KENORA         CLOUDY     1 -11  55 NE9       30.17F WCI -14
$$
                *** MANITOBA***

CITY           SKY/WX    TMP DP  RH WIND       PRES   REMARKS
BRANDON        CLOUDY     1  -4  78 SW5       30.19R WCI  -8
DAUPHIN        CLOUDY     0  -9  65 SW7       30.19F WCI -13
ISLAND LAKE    NOT AVBL
PILOT MOUND      N/A      3  -6  66 W2          N/A
THE PAS        CLEAR     -2 -13  60 S8        30.06F WCI -17
THOMPSON       CLEAR     -9 -17  70 SE2       30.10F
WINNIPEG       CLOUDY     1  -8  66 N2        30.25F
LYNN LAKE      LGT SNOW   1  -2  85 S8        29.89R WCI -12
CHURCHILL      CLOUDY   -20 -31  57 VRB2      30.31R
GILLAM         CLEAR    -13 -24  58 S8        30.22S WCI -30
$$
                ***SASKATCHEWAN***

CITY           SKY/WX    TMP DP  RH WIND       PRES   REMARKS
ESTEVAN        CLOUDY    -4  -9  77 SW5       30.13S WCI -15
KINDERSLEY     PTCLDY    -8 -13  77 W14       30.00R WCI -28
LLOYDMINSTER   CLOUDY     7   0  72 W13       29.88F WCI  -9
PRINCE ALBERT  CLEAR     -4  -9  77 SW8       30.02S WCI -19
REGINA         PTCLDY    -9 -15  77 SW7       30.10S WCI -24
YORKTON        CLOUDY    -4  -9  77 S10       30.12R WCI -21
N. BATTLEFORD  CLOUDY     1  -8  66 SW9       29.97F WCI -14
LA RONGE       FLURRIES  10  -2  56 SW6       29.90S WCI   1
SASKATOON      PTCLDY    -4  -9  77 SW13      30.04S WCI -23
SWIFT CURRENT  PTCLDY    -8 -15  71 SW13      30.00S WCI -28
$$
NOTE: THESE ARE AUTOMATED STATIONS WITH LIMITED QUALITY CONTROL
      "FAIR" INDICATES FEW OR NO CLOUDS BELOW 12,000 FEET WITH NO
      SIGNIFICANT WEATHER AND/OR OBSTRUCTIONS TO VISIBILITY.
      SKY/WX - SKY CONDITION AND SIGNIFICANT WEATHER.
      TMP - AIR TEMPERATURE.    DP   - DEWPOINT TEMPERATURE.
      RH  - RELATIVE HUMIDITY.  PRES - PRESSURE.
      HX  - HEAT INDEX.         WCI  - WIND CHILL INDEX.
$



USA.gov is the U.S. government's official web portal to all federal, state and local government web resources and services.